Salina, KS

9:57 PM CST on December 15, 2017 (GMT -0600)
Salina Municipal

Weather History for KSLN - May, 2012

Change the Weather History Date:

Friday, May 4, 2012

  Actual Average Record
Temperature  
Mean Temperature 80 °F 61 °F  
Max Temperature 95 °F 73 °F 96 °F (2014)
Min Temperature 64 °F 50 °F 24 °F (1907)
Degree Days  
Heating Degree Days 0 5  
Month to date heating degree days 0 23  
Since 1 July heating degree days 4044 4791  
Cooling Degree Days 15 2  
Month to date cooling degree days 45 5  
Year to date cooling degree days 120 30  
Growing Degree Days 30 (Base 50)    
Moisture  
Dew Point 65 °F    
Average Humidity 61    
Maximum Humidity 93    
Minimum Humidity 28    
Precipitation  
Precipitation T in 0.13 in 1.87 in (2015)
Month to date precipitation T 0.50  
Year to date precipitation 6.97 7.74  
Sea Level Pressure  
Sea Level Pressure 29.74 in    
Wind  
Wind Speed 11 mph (SSE)    
Max Wind Speed 23 mph    
Max Gust Speed 31 mph    
Visibility 9 miles    
Events Fog    
T = Trace of Precipitation, MM = Missing Value Source: NWS Daily Summary

Daily Weather History Graph

Daily Weather History Graph

Search for Another Location

Airport or City:

Trip Planner

Search our weather history database for the weather conditions in past years. The results will help you decide how hot, cold, wet, or windy it might be!

Date:

Astronomy

May. 04, 2012 Rise Set
Actual Time 6:28 AM CDT 8:26 PM CDT
Civil Twilight 5:59 AM CDT 8:55 PM CDT
Nautical Twilight 5:24 AM CDT 9:30 PM CDT
Astronomical Twilight 4:46 AM CDT 10:09 PM CDT
Moon 7:06 PM CDT (5/4) 5:09 AM CDT (5/4)
Length of Visible Light 14h 55m
Length of Day
13h 57m
Waxing Gibbous, 97% of the Moon is Illuminated
May 4
Waxing Gibbous
May 5
Full
May 12
Last Quarter
May 20
New
May 28
First Quarter

Hourly Weather History & Observations

Time (CDT) Temp. Heat Index Dew Point Humidity Pressure Visibility Wind Dir Wind Speed Gust Speed Precip Events Conditions
12:53 AM 66.9 °F - 63.0 °F 87% 29.77 in 10.0 mi SE 3.5 mph - N/A   Clear
1:53 AM 69.1 °F - 64.0 °F 84% 29.78 in 10.0 mi South 5.8 mph - N/A   Clear
2:53 AM 68.0 °F - 64.0 °F 87% 29.75 in 9.0 mi South 4.6 mph - N/A   Clear
3:53 AM 71.1 °F - 66.9 °F 87% 29.71 in 9.0 mi ESE 5.8 mph - N/A   Clear
4:53 AM 66.9 °F - 64.0 °F 90% 29.73 in 7.0 mi West 6.9 mph - N/A   Clear
5:53 AM 66.9 °F - 64.0 °F 90% 29.75 in 7.0 mi Calm Calm - 0.00 in   Clear
6:53 AM 66.9 °F - 64.0 °F 90% 29.78 in 4.0 mi SE 4.6 mph - N/A Fog Shallow Fog
7:53 AM 69.8 °F - 66.2 °F 88% 29.82 in 5.0 mi Calm Calm - N/A Fog Shallow Fog
8:53 AM 75.0 °F - 66.0 °F 73% 29.77 in 10.0 mi SSE 12.7 mph - N/A   Clear
9:53 AM 79.0 °F - 68.0 °F 69% 29.76 in 10.0 mi SSE 15.0 mph - N/A   Clear
10:53 AM 82.0 °F 85.5 °F 69.1 °F 65% 29.77 in 10.0 mi SSE 12.7 mph 17.3 mph N/A   Clear
11:53 AM 84.0 °F 87.8 °F 69.1 °F 61% 29.78 in 10.0 mi South 13.8 mph - N/A   Partly Cloudy
12:53 PM 84.9 °F 88.8 °F 69.1 °F 59% 29.76 in 10.0 mi SSE 15.0 mph - N/A   Partly Cloudy
1:53 PM 88.0 °F 91.4 °F 68.0 °F 51% 29.74 in 10.0 mi SSE 17.3 mph 24.2 mph N/A   Clear
2:53 PM 90.0 °F 92.8 °F 66.9 °F 46% 29.72 in 10.0 mi SSE 19.6 mph 24.2 mph N/A   Clear
3:53 PM 91.9 °F 92.5 °F 62.1 °F 37% 29.69 in 10.0 mi SSE 13.8 mph 20.7 mph N/A   Clear
4:53 PM 93.9 °F 92.0 °F 55.0 °F 27% 29.67 in 10.0 mi South 21.9 mph 26.5 mph N/A   Clear
5:53 PM 91.9 °F 90.8 °F 57.9 °F 32% 29.67 in 10.0 mi South 20.7 mph 29.9 mph N/A   Clear
6:53 PM 88.0 °F 88.7 °F 63.0 °F 43% 29.68 in 10.0 mi South 8.1 mph 19.6 mph N/A   Clear
7:53 PM 84.0 °F 85.8 °F 64.9 °F 53% 29.68 in 10.0 mi South 10.4 mph - N/A   Clear
8:53 PM 79.0 °F - 66.9 °F 66% 29.69 in 10.0 mi SSE 10.4 mph - N/A   Clear
9:53 PM 75.9 °F - 66.0 °F 71% 29.71 in 10.0 mi SSE 9.2 mph - N/A   Clear
10:53 PM 73.9 °F - 66.9 °F 79% 29.73 in 10.0 mi SSE 11.5 mph - N/A   Clear
11:53 PM 73.0 °F - 66.9 °F 81% 29.74 in - South 9.2 mph - N/A   Clear